TimeCST,TemperatureF,Dew PointF,Humidity,Sea Level PressureIn,VisibilityMPH,Wind Direction,Wind SpeedMPH,Gust SpeedMPH,PrecipitationIn,Events,Conditions,WindDirDegrees,DateUTC
12:50 AM,50.0,48.2,94,29.98,1.8,Calm,Calm,-,N/A,,Clear,0,2013-02-24 06:50:00
12:53 AM,50.0,48.0,93,29.98,1.2,Calm,Calm,-,N/A,,Clear,0,2013-02-24 06:53:00
1:02 AM,50.0,48.2,94,29.98,3.0,Calm,Calm,-,N/A,,Clear,0,2013-02-24 07:02:00
1:06 AM,50.0,48.2,94,29.98,1.8,Calm,Calm,-,N/A,,Clear,0,2013-02-24 07:06:00
1:14 AM,48.2,46.4,93,29.98,0.5,Calm,Calm,-,N/A,Fog,Fog,0,2013-02-24 07:14:00
1:38 AM,48.2,46.4,93,29.97,1.0,Calm,Calm,-,N/A,,Clear,0,2013-02-24 07:38:00
1:53 AM,48.0,46.0,93,29.97,1.2,Calm,Calm,-,N/A,,Clear,0,2013-02-24 07:53:00
2:02 AM,46.4,44.6,93,29.97,0.5,Calm,Calm,-,N/A,Fog,Fog,0,2013-02-24 08:02:00
2:53 AM,46.0,43.0,89,29.96,1.0,Calm,Calm,-,N/A,,Mist,0,2013-02-24 08:53:00
3:03 AM,46.4,42.8,87,29.97,1.0,Calm,Calm,-,N/A,,Clear,0,2013-02-24 09:03:00
3:10 AM,46.4,42.8,87,29.96,0.5,Calm,Calm,-,N/A,Fog,Fog,0,2013-02-24 09:10:00
3:53 AM,44.1,42.1,93,29.97,0.5,Calm,Calm,-,N/A,Fog,Fog,0,2013-02-24 09:53:00
4:51 AM,42.8,39.2,87,29.98,1.0,Calm,Calm,-,N/A,,Clear,0,2013-02-24 10:51:00
4:53 AM,42.1,39.9,92,29.99,1.2,Calm,Calm,-,N/A,,Clear,0,2013-02-24 10:53:00
5:04 AM,42.8,39.2,87,29.99,0.5,Calm,Calm,-,N/A,Fog,Fog,0,2013-02-24 11:04:00
5:11 AM,42.8,39.2,87,29.99,0.5,Calm,Calm,-,N/A,Fog,Fog,0,2013-02-24 11:11:00
5:24 AM,41.0,39.2,93,29.99,0.5,Calm,Calm,-,N/A,Fog,Fog,0,2013-02-24 11:24:00
5:53 AM,44.1,41.0,89,30.00,0.2,Calm,Calm,-,N/A,Fog,Fog,0,2013-02-24 11:53:00
6:53 AM,45.0,43.0,93,30.01,0.2,Calm,Calm,-,N/A,Fog,Fog,0,2013-02-24 12:53:00
7:40 AM,46.4,44.6,93,30.02,1.2,NE,3.5,-,N/A,,Overcast,40,2013-02-24 13:40:00
7:50 AM,46.4,44.6,93,30.03,3.0,NNE,4.6,-,N/A,,Overcast,30,2013-02-24 13:50:00
7:53 AM,46.9,45.0,93,30.03,3.0,NNE,4.6,-,N/A,,Overcast,30,2013-02-24 13:53:00
8:08 AM,48.2,46.4,93,30.03,1.8,Calm,Calm,-,N/A,,Overcast,0,2013-02-24 14:08:00
8:19 AM,48.2,44.6,87,30.04,3.0,NNE,3.5,-,N/A,,Overcast,20,2013-02-24 14:19:00
8:42 AM,51.8,46.4,82,30.04,9.0,ENE,6.9,-,N/A,,Mostly Cloudy,70,2013-02-24 14:42:00
8:53 AM,51.1,46.0,83,30.04,10.0,NNE,10.4,-,N/A,,Scattered Clouds,30,2013-02-24 14:53:00
9:53 AM,57.0,45.0,64,30.04,10.0,East,6.9,-,N/A,,Clear,80,2013-02-24 15:53:00
10:53 AM,62.1,45.0,53,30.02,10.0,Variable,4.6,-,N/A,,Clear,0,2013-02-24 16:53:00
11:53 AM,66.9,43.0,42,29.99,10.0,ENE,6.9,-,N/A,,Clear,70,2013-02-24 17:53:00
12:53 PM,70.0,39.0,32,29.96,10.0,ENE,9.2,-,N/A,,Clear,70,2013-02-24 18:53:00
1:53 PM,72.0,39.0,30,29.95,10.0,East,6.9,-,N/A,,Clear,80,2013-02-24 19:53:00
2:53 PM,73.0,39.0,29,29.94,10.0,ENE,8.1,-,N/A,,Clear,70,2013-02-24 20:53:00
3:53 PM,72.0,39.9,31,29.94,10.0,East,6.9,-,N/A,,Clear,90,2013-02-24 21:53:00
4:53 PM,69.1,42.1,38,29.93,10.0,ENE,3.5,-,N/A,,Clear,70,2013-02-24 22:53:00
5:53 PM,63.0,46.0,54,29.93,10.0,NE,3.5,-,N/A,,Clear,40,2013-02-24 23:53:00
6:53 PM,57.0,50.0,77,29.94,10.0,Calm,Calm,-,N/A,,Clear,0,2013-02-25 00:53:00
7:53 PM,57.0,50.0,77,29.95,10.0,Calm,Calm,-,N/A,,Partly Cloudy,0,2013-02-25 01:53:00
8:53 PM,55.9,48.9,77,29.92,10.0,ENE,3.5,-,N/A,,Clear,70,2013-02-25 02:53:00
9:53 PM,59.0,46.9,64,29.92,10.0,Calm,Calm,-,N/A,,Clear,0,2013-02-25 03:53:00
10:53 PM,60.1,45.0,57,29.89,10.0,ESE,5.8,-,N/A,,Overcast,120,2013-02-25 04:53:00
11:53 PM,59.0,46.9,64,29.89,10.0,SE,9.2,-,0.01,Rain,Light Rain,140,2013-02-25 05:53:00